Weather Service Report


770 
ASUS44 KFWD 211415
RWRTX 
NORTH TEXAS HOURLY WEATHER ROUNDUP
NATIONAL WEATHER SERVICE FORT WORTH TX
800 AM CST TUE FEB 21 2017

NOTE: "FAIR" INDICATES FEW OR NO CLOUDS BELOW 12,000 FEET WITH NO
SIGNIFICANT WEATHER AND/OR OBSTRUCTIONS TO VISIBILITY.

TXZ118-119-211500-
DALLAS/FORT WORTH METROPLEX
  
CITY           SKY/WX    TMP DP  RH WIND       PRES   REMARKS
DFW AIRPORT    MOSUNNY   53  47  79 NW13      29.94R                  
DALLAS LOVE    MOSUNNY   53  47  79 NW8       29.95R                  
FTW MEACHAM    SUNNY     54  43  66 NW9       29.97R                  
DAL-EXECUTIVE  SUNNY     53  47  79 NW12      29.94R                  
FTW-ALLIANCE   SUNNY     51  44  77 NW9       29.98R                  
FTW-NAS-JRB    SUNNY     55  44  66 NW14      29.99R                  
FTW-SPINKS     SUNNY     52  45  76 W5        30.00R                  
ARLINGTON      SUNNY     53  44  71 W7        29.97R                  
GRAND PRAIRIE  SUNNY     53  44  70 W5        29.98R                  
ADDISON        SUNNY     52  46  82 NW8       29.97R                  
MESQUITE       SUNNY     54  52  94 W3        29.95R FOG              
LANCASTER      SUNNY     50  49  97 NW8       29.96R                  
$$

TXZ091>094-102>105-117-120-121-131>134-211500-
NORTH CENTRAL TEXAS
  
CITY           SKY/WX    TMP DP  RH WIND       PRES   REMARKS
SHRMAN/DENISON SUNNY     48  48 100 NW6       29.96R                  
GAINESVILLE    CLEAR     50  44  79 NW14      29.98S                  
BOWIE          CLEAR     49  43  81 W8        30.01R                  
BRIDGEPORT     CLEAR     51  41  69 W12       30.03R                  
DECATUR        CLEAR     48  42  80 W10       30.00R                  
DENTON         SUNNY     51  45  79 NW12      29.96R                  
MCKINNEY       SUNNY     51  50  96 NW12      29.94R                  
BONHAM         CLOUDY    48  48 100 N6        29.94R FOG              
GREENVILLE     MOSUNNY   54  54 100 NW3       29.94R FOG              
ROCKWALL       MOSUNNY   53  53 100 NW6       29.94S FOG              
TERRELL        CLOUDY    55  53  93 NW7       29.94R FOG              
WAXAHACHIE     SUNNY     51  48  92 W9        29.97R                  
CLEBURNE       SUNNY     48  45  87 W10       30.01R                  
GRANBURY       CLEAR     52  40  63 W10       30.02R                  
$$

TXZ083>090-098>101-113>116-127>130-139>142-154-155-211500-
WESTERN NORTH TEXAS
  
CITY           SKY/WX    TMP DP  RH WIND       PRES   REMARKS
WICHITA FALLS  CLEAR     47  39  74 NW10      30.02R                  
WF-KICKAPOO    CLEAR     48  37  65 NW7       30.04S                  
VERNON         CLEAR     44  32  63 NW10      30.06S WCI  39          
ABILENE        CLEAR     42  31  64 W8        30.09S WCI  37          
ABILENE-DYESS  CLEAR     47  29  49 W10       30.08R                  
GRAHAM         CLEAR     48  37  66 NW5       30.03S                  
BRECKENRIDGE   CLEAR     51  35  54 NW5       30.06R                  
CISCO          CLEAR     48  30  49 NW9G15    30.06R                  
RANGER         CLEAR     50  34  53 NW8       30.05R                  
MINERAL WELLS  CLEAR     48  38  68 W10       30.01R                  
STEPHENVILLE   CLEAR     51  35  53 NW8       30.04S                  
COMANCHE       CLEAR     52  33  48 NW12      30.04S                  
BROWNWOOD      CLEAR     43  37  81 CALM      30.07R                  
COLEMAN        CLEAR     51  29  41 NW6       30.08R                  
$$

TXZ143>147-156>162-174-175-211500-
CENTRAL TEXAS
  
CITY           SKY/WX    TMP DP  RH WIND       PRES   REMARKS
WACO           SUNNY     52  43  71 NW12      29.97R                  
WACO-TSTC      SUNNY     48  48 100 NW12      29.98R                  
WACO-MCGREGOR  SUNNY     53  42  66 NW14G21   29.98R                  
HILLSBORO      SUNNY     49  46  90 NW9       29.98R                  
CORSICANA      CLOUDY    54  54 100 NW7       29.96R FOG              
MEXIA          PTSUNNY   53  53  99 NW7       29.94R                  
HEARNE         SUNNY     53  49  85 W6        29.97R                  
CAMERON        MOSUNNY   52  47  82 NW7       29.97R                  
TEMPLE         SUNNY     53  41  63 NW15      29.99R                  
KILLEEN        SUNNY     56  36  47 NW14      29.99R                  
KILLEEN-SKYLRK SUNNY     54  38  54 NW10      30.00R                  
FORT HOOD      SUNNY     53  39  59 NW12G21   29.97R                  
GATESVILLE     SUNNY     54  37  54 NW9       30.02S                  
HAMILTON       CLEAR     51  36  56 NW15      30.03R                  
LAMPASAS       PTCLDY    53  38  58 NW10      30.02R                  
$$

TXZ095>097-106>112-122>126-135>138-148>153-164>167-211500-
EAST TEXAS
  
CITY           SKY/WX    TMP DP  RH WIND       PRES   REMARKS
PARIS          CLOUDY    55  52  88 NW7       29.93S                  
SULPHUR SPRNGS CLOUDY    57  57 100 NW5       29.96R FOG              
MOUNT PLEASANT CLOUDY    57  57 100 CALM      29.95S                  
GILMER         CLOUDY    56  56  98 CALM      29.94R                  
MINEOLA        CLOUDY    57  55  94 CALM      29.93R                  
TYLER          CLOUDY    58  58 100 W3        29.93R FOG              
LONGVIEW       CLOUDY    58  58 100 CALM      29.93R                  
MARSHALL       CLOUDY    56  54  94 CALM      29.96R                  
ATHENS         CLOUDY    55  55 100 CALM      29.93R FOG              
PALESTINE      CLOUDY    58  58 100 CALM      29.94R FOG              
JACKSONVILLE   CLOUDY    57  57 100 CALM      29.94S FOG              
HENDERSON      CLOUDY   N/A N/A N/A SW3       29.94R                  
CENTER         CLOUDY    61  60  95 SE6       29.95R FOG              
NACOGDOCHES    CLOUDY    57  55  94 S3        29.93R                  
LUFKIN         CLOUDY    58  57  97 SE5       29.94R                  
$$

SUPPLEMENTAL OBSERVATIONS (CENTRAL)
  
CITY           SKY/WX    TMP DP  RH WIND       PRES   REMARKS
DENISON DAM      N/A     52  48  87 W10         N/A                   
CADDO GRASSLND   N/A     52  50  93 N3          N/A                   
PAT MAYSE LAKE   N/A     52  50  93 NW7         N/A                   
GREENVILLE       N/A     55  54  94 NW5         N/A                   
CEDAR HILL       N/A     52  50  93 W2          N/A                   
ATHENS           N/A     57  55  94 CALM        N/A                   
LAKE LIMESTONE   N/A     55  52  88 W7          N/A                   
MCGREGOR         N/A     54  45  71 NW7         N/A                   
TEMPLE           N/A     55  41  58 NW3         N/A                   
$$

SUPPLEMENTAL OBSERVATIONS (WEST)
  
CITY           SKY/WX    TMP DP  RH WIND       PRES   REMARKS
MILLERS CREEK    N/A     46  34  61 NW8         N/A                   
POSSUM KINGDOM   N/A     50  34  53 NW6         N/A                   
LBJ GRASSLAND    N/A     48  41  76 W5          N/A                   
GRANBURY         N/A     52  39  62 NW13        N/A                   
COMANCHE         N/A     54  32  43 NW14        N/A                   
HAMBY            N/A     43  34  70 CALM        N/A                   
IVIE RESERVOIR   N/A     46  32  57 W6          N/A                   
COLORADO BEND    N/A     54  32  43 N6          N/A                   
$$

SUPPLEMENTAL OBSERVATIONS (EAST)
  
CITY           SKY/WX    TMP DP  RH WIND       PRES   REMARKS
CLARKSVILLE      N/A     55  54  94 NW3         N/A                   
TEXARKANA        N/A     55  54  94 SW3         N/A                   
LINDEN           N/A     55  54  94 W3          N/A                   
CADDO LAKE       N/A    N/A N/A N/A W2          N/A                   
GILMER           N/A     57  55  94 NW1         N/A                   
HENDERSON        N/A     57  55  94 SW3         N/A                   
LUFKIN           N/A     59  57  94 MISG        N/A                   
N SABINE NF      N/A     57  55  94 MISG        N/A                   
S SABINE NF      N/A     57  55  94 CALM        N/A                   
$$

SUPPLEMENTAL OBSERVATIONS ARE A COLLECTION OF AUTOMATED INSTRUMENTS
THAT ARE MAINTAINED BY A VARIETY OF FEDERAL AND STATE AGENCIES. 
CERTAIN ELEMENTS...SUCH AS HUMIDITY VALUES AND SUSTAINED WIND 
SPEEDS...MAY BE APPROXIMATED.

  

Return to Home page


Western Regional Climate Center, wrcc@dri.edu